Weather in Taly

Russia / Komi Republic     64°36′50″N   55°41′18″E
temp.,
°C
wind,
m/s
gust,
m/s
humid.,
%
clouds,
%
prec.,
mm/h
press.,
hPa
HPBL,
m
9 may, sun
sun900:00+5se22765 0.0 102012
03:00+4se2383100 0.0 102148
06:00+9se376711 0.0 1020242
09:00+14se474364 0.0 10181215
12:00+17sse6942100 0.0 10171738
15:00+16sse51156100 0.0 10161263
18:00+16sse61356100 0.0 1016755
21:00+14sse51564100 0.0 1016575
10 may, mon
mon1000:00+13sse5167188 0.0 1015533
03:00+13sse61772100 0.0 1015590
06:00+15s61559100 0.0 1015967
09:00+16ssw51455100 0.0 10151310
12:00+9nw5788100 2.0 1019509
15:00+6nw4990100 7.9 1022616
18:00+6nnw2584100 4.1 1025669
21:00+4nw118741 4.2 102610
11 may, tue
tue1100:00+3sw118847 0.0 102710
03:00+2sw2384100 0.0 102846
06:00+6sw377269 0.0 1028259
09:00+10sw4751100 0.0 1027859
12:00+10wsw5959100 0.0 10261476
15:00+9sw4867100 0.0 1026957
18:00+7wsw3779100 0.0 1027467
21:00+6wsw2392100 0.0 102777
12 may, wed
wed1200:00+6sw2395100 0.0 1027108
03:00+6ssw2498100 0.1 1027126
06:00+8ssw2489100 0.0 1026244
09:00+12ssw3780100 0.1 1025473
12:00+19w585760 0.0 10231638
15:00+19w4956100 0.1 10231466
18:00+17wnw3971100 0.3 1024441
21:00+13nw41087100 0.5 1026635
13 may, thu
thu1300:00+12nnw3680100 0.0 1027421
03:00+8n3781100 0.0 1029483
06:00+9n247369 0.0 1030500
09:00+12nne125864 0.0 1030707
12:00+16ene115091 0.0 1029932
15:00+17s2351100 0.0 10271002
18:00+17se245851 0.0 1025361
21:00+12se39749 0.0 1024185